Location: Faicchio
(41.2833°N, 14.4833°E)
Time: 06:43:25
(UTC+00:00)

Cosmos 2228 - Pass Details

Date: 15 June 2025
Orbit: 566 x 593 km, 82.5° (Epoch: 16 July)

Event Time Altitude Azimuth Distance (km) Brightness Sun altitude
Rises 01:38:23 0° 354° (N) 2,775 7.2 -16.0°
Reaches altitude 10° 01:40:35 10° 357° (N) 1,872 6.3 -15.7°
Maximum altitude 01:44:41 69° 81° (E) 608 3.1 -15.3°
Enters shadow 01:48:39 11° 165° (SSE) 1,814 5.1 -14.8°
